Tracking 19476 objects as of 17-Jan-2019
HD Live streaming from Space Station
objects crossing your sky now

HESSI

Track HESSI now!
10-day predictions
HESSI is classified as:


NORAD ID: 27370
Int'l Code: 2002-004A
Perigee: 472.0 km
Apogee: 488.0 km
Inclination: 38.0 °
Period: 94.1 minutes
Semi major axis: 6850 km
RCS: 2.4114 m2 (large)
Launch date: February 5, 2002
Source: United States (US)
Launch site: Pegasus launched from Eastern Range Air Space (ERAS)

Explore basic physics of particle acceleration and explosive energy release in solar flares.
aabbcc
Your satellite tracking list
Your tracking list is empty




NASA's NSSDC Master Catalog

Two Line Element Set (TLE):
1 27370U 02004A   19017.38664624  .00001414  00000-0  50756-4 0  9999
2 27370  38.0327 110.7890 0011648  73.1698 287.0349 15.30993685935025
Source of the keplerian elements: AFSPC